weather.gov     
National Weather Service

Terminal Aerodrome Forecast
NWS Homepage
This page is being discontinued on March 12, 2014.
The same data is available at this site. Please update your bookmarks.
Thank you, and we apologize for the inconvenience.
Please send an email to SR-SRH.Webmaster@noaa.gov with any concerns.


Current Version
Previous Version:    01  02  03  04  05  06  07  08  09  10  11  12  13  14  15  16  17  18  19  20  21  22  23  
[Printable]
763
FTUS44 KMRX 312329
TAFCHA
TAF
KCHA 312329Z 0100/0124 32012G22KT P6SM SCT020 OVC040
      TEMPO 0100/0104 -RA OVC025
     FM010400 32014G22KT P6SM SCT025 OVC040
     FM011200 33015G25KT P6SM BKN040
     FM012000 34015KT P6SM SCT040=




763
FTUS44 KMRX 312329
TAFCHA
TAF
KCHA 312329Z 0100/0124 32012G22KT P6SM SCT020 OVC040
      TEMPO 0100/0104 -RA OVC025
     FM010400 32014G22KT P6SM SCT025 OVC040
     FM011200 33015G25KT P6SM BKN040
     FM012000 34015KT P6SM SCT040=


U.S. Dept. of Commerce
NOAA National Weather Service
1325 East West Highway
Silver Spring, MD 20910
E-mail: w-nws.webmaster@noaa.gov
Page last modified: May 16, 2007
NATIONAL WEATHER SERVICE: for Safety, for Work, for Fun - FOR LIFE